Monatsübersicht für Oktober 2018

 
Wetter
Zeitraffer
Tageslänge (hh:mm)
Höchsttemperatur in °C
Uhrzeit
Tiefsttemperatur in °C
Uhrzeit
Luftfeuchte (max., in %)
Uhrzeit
Luftfeuchte (min., in %)
Uhrzeit
Luftdruck (max., in hPa)
Uhrzeit
Luftdruck (min., in hPa)
Uhrzeit
Luftdruck (Ø, in hPa)
Regenrate (max, mm/h)
Uhrzeit
Niederschlag in mm
Verdunstung in mm
Solar in W/m² (Ø)
Solar in W/m² (max.)
UV-Index (max.)
Sonnenscheindauer (hh:mm)
Windrichtung (Ø)
Windstärke (Ø in km/h)
Windstärke (Ø in bft)
Windböe (max., in km/h)
Uhrzeit
Windböe (max., in bft)
Uhrzeit
Taupunkt (max., in °C)
Uhrzeit
Taupunkt (min., in °C)
Uhrzeit
Windchill (min., in °C)
Uhrzeit
Gewitterindex (max.)
Uhrzeit
01
11:39
15.6
12:40 Uhr
0.0
07:00 Uhr

94
19:25 Uhr
61
12:50 Uhr
1015.4
23:30 Uhr

1010.5
05:30 Uhr
1012.1
2,400
17:25 Uhr
0,800
1.245
178
606
12:35 Uhr
2.2
12:30 Uhr

03:20:00
3,9
1
32,2
17:20 Uhr

5
9.1
14:35 Uhr
-1.1
06:40 Uhr
0.0
07:00 Uhr
0
00:00 Uhr
02
11:34
10.0
22:55 Uhr
3.8
06:40 Uhr

95
04:00 Uhr
70
12:20 Uhr
1016.8
08:10 Uhr

1009.9
18:45 Uhr
1013.7
2,400
15:50 Uhr
1,800
0.838
134
473
10:15 Uhr
1.5
14:05 Uhr

02:40:00
8,2
2
33,8
15:05 Uhr

5
9.2
22:50 Uhr
3.1
06:40 Uhr
1.9
04:25 Uhr
2
22:15 Uhr
03
11:30
15.2
13:40 Uhr
8.2
23:50 Uhr

93
02:45 Uhr
47
16:35 Uhr
1023.7
23:30 Uhr

1009.8
03:25 Uhr
1015.6
2,400
01:35 Uhr
1,200
2.159
212
690
13:55 Uhr
2.4
12:45 Uhr

04:25:00
13,4
3
51,5
13:25 Uhr

6
8.5
00:00 Uhr
3.3
16:35 Uhr
1.5
03:40 Uhr
0
00:00 Uhr
04
11:27
15.1
16:30 Uhr
6.1
05:40 Uhr

95
05:50 Uhr
74
16:30 Uhr
1025.9
09:45 Uhr

1023.4
00:25 Uhr
1025.0
0,000
00:00 Uhr
0,000
1.016
136
399
10:20 Uhr
1.6
11:25 Uhr

01:45:00
4,5
1
22,5
17:10 Uhr

4
10.8
23:00 Uhr
4.7
00:50 Uhr
6.1
05:40 Uhr
3
21:50 Uhr
05
11:22
19.9
14:15 Uhr
11.2
07:30 Uhr

92
01:35 Uhr
47
15:45 Uhr
1025.1
00:45 Uhr

1016.5
23:40 Uhr
1021.8
0,000
00:00 Uhr
0,000
2.388
301
518
13:05 Uhr
2.8
12:50 Uhr

09:05:00
3,2
1
22,5
16:00 Uhr

4
10.7
00:00 Uhr
7.5
23:40 Uhr
11.2
07:30 Uhr
3
00:00 Uhr
06
11:18
22.3
16:10 Uhr
7.4
07:40 Uhr

91
07:15 Uhr
48
16:10 Uhr
1016.4
00:00 Uhr

1008.2
21:05 Uhr
1011.4
0,000
00:00 Uhr
0,000
2.108
267
529
12:40 Uhr
2.5
12:35 Uhr

08:10:00
2,7
1
17,7
10:50 Uhr

3
12.1
18:20 Uhr
6.0
07:40 Uhr
7.4
07:40 Uhr
4
18:40 Uhr
07
11:14
13.8
15:30 Uhr
10.6
06:25 Uhr

89
06:15 Uhr
55
15:50 Uhr
1023.3
23:55 Uhr

1007.8
03:25 Uhr
1010.1
0,000
00:00 Uhr
0,000
0.051
0
0
00:00 Uhr
0.0
00:00 Uhr

00:50:00
0,2
0
31,4
11:35 Uhr

5
5.7
17:00 Uhr
2.6
23:50 Uhr
0.0
03:25 Uhr
4
00:00 Uhr
08
11:11
14.6
16:15 Uhr
1.0
06:50 Uhr

95
06:30 Uhr
45
16:30 Uhr
1022.9
22:40 Uhr

1021.9
20:25 Uhr
1022.5
0,000
20:15 Uhr
0,000
0.051
0
0
20:15 Uhr
0.0
20:15 Uhr

09:50:00
0,2
0
21,8
14:00 Uhr

4
4.8
20:15 Uhr
0.7
05:10 Uhr
5.5
23:50 Uhr
0
20:15 Uhr
09
11:06
17.6
17:05 Uhr
2.9
06:20 Uhr

95
07:10 Uhr
58
15:20 Uhr
1024.2
11:20 Uhr

1022.1
02:35 Uhr
1023.1
0,000
00:00 Uhr
0,000
1.118
186
498
12:05 Uhr
2.1
12:25 Uhr

05:00:00
0,9
0
11,3
15:40 Uhr

2
10.5
12:30 Uhr
1.8
06:25 Uhr
2.9
06:20 Uhr
2
18:30 Uhr
10
11:02
22.2
15:15 Uhr
7.0
06:25 Uhr

97
04:10 Uhr
56
15:15 Uhr
1024.9
10:00 Uhr

1021.4
23:35 Uhr
1023.2
0,000
00:00 Uhr
0,000
2.311
258
478
13:10 Uhr
2.2
12:50 Uhr

09:45:00
5,4
1
25,7
16:40 Uhr

4
13.6
14:40 Uhr
6.4
06:25 Uhr
7.0
06:25 Uhr
6
19:45 Uhr
11
10:59
23.5
16:45 Uhr
12.3
06:30 Uhr

85
04:20 Uhr
42
16:45 Uhr
1021.4
00:00 Uhr

1017.2
16:40 Uhr
1019.0
0,000
00:00 Uhr
0,000
3.023
274
480
12:55 Uhr
2.0
12:15 Uhr

08:35:00
10,1
2
33,8
11:00 Uhr

5
12.0
00:00 Uhr
9.2
13:30 Uhr
9.3
07:05 Uhr
4
00:00 Uhr
12
10:54
24.3
15:55 Uhr
11.9
07:30 Uhr

81
07:15 Uhr
43
14:45 Uhr
1024.8
21:45 Uhr

1019.1
00:00 Uhr
1022.0
0,000
00:00 Uhr
0,000
2.362
263
460
12:55 Uhr
2.0
12:40 Uhr

08:30:00
3,7
1
19,3
01:15 Uhr

3
12.0
17:55 Uhr
8.7
07:30 Uhr
11.9
07:30 Uhr
5
18:55 Uhr
13
10:50
24.8
15:40 Uhr
11.1
07:30 Uhr

87
06:50 Uhr
41
16:10 Uhr
1025.6
09:05 Uhr

1021.1
23:40 Uhr
1023.8
0,000
00:00 Uhr
0,000
2.591
259
459
12:55 Uhr
2.0
12:40 Uhr

08:20:00
4,6
1
27,4
14:40 Uhr

4
12.0
12:10 Uhr
8.9
07:30 Uhr
11.1
07:30 Uhr
3
00:00 Uhr
14
10:46
23.5
15:55 Uhr
13.1
06:40 Uhr

72
03:15 Uhr
38
15:35 Uhr
1021.2
00:00 Uhr

1014.6
15:40 Uhr
1017.0
0,000
00:00 Uhr
0,000
3.048
284
452
12:50 Uhr
1.8
12:40 Uhr

07:40:00
7,9
2
30,6
15:00 Uhr

5
9.8
00:10 Uhr
6.7
23:40 Uhr
11.2
06:50 Uhr
2
00:00 Uhr
15
10:43
20.7
14:35 Uhr
11.5
07:50 Uhr

65
07:40 Uhr
39
12:30 Uhr
1017.1
23:00 Uhr

1015.0
00:00 Uhr
1015.9
0,000
00:00 Uhr
0,000
2.413
209
527
13:00 Uhr
2.0
12:55 Uhr

06:30:00
5,0
1
22,5
14:45 Uhr

4
7.4
15:05 Uhr
5.0
22:30 Uhr
11.5
06:50 Uhr
0
00:00 Uhr


 
Wetter
Zeitraffer
Tageslänge (hh:mm)
Höchsttemperatur in °C
Uhrzeit
Tiefsttemperatur in °C
Uhrzeit
Luftfeuchte (max., in %)
Uhrzeit
Luftfeuchte (min., in %)
Uhrzeit
Luftdruck (max., in hPa)
Uhrzeit
Luftdruck (min., in hPa)
Uhrzeit
Luftdruck (Ø, in hPa)
Regenrate (max, mm/h)
Uhrzeit
Niederschlag in mm
Verdunstung in mm
Solar in W/m² (Ø)
Solar in W/m² (max.)
UV-Index (max.)
Sonnenscheindauer (hh:mm)
Windrichtung (Ø)
Windstärke (Ø in km/h)
Windstärke (Ø in bft)
Windböe (max., in km/h)
Uhrzeit
Windböe (max., in bft)
Uhrzeit
Taupunkt (max., in °C)
Uhrzeit
Taupunkt (min., in °C)
Uhrzeit
Windchill (min., in °C)
Uhrzeit
Gewitterindex (max.)
Uhrzeit
16
10:39
20.0
16:00 Uhr
6.7
07:45 Uhr

90
23:25 Uhr
46
16:00 Uhr
1019.9
20:50 Uhr

1016.7
00:10 Uhr
1018.3
0,000
00:00 Uhr
0,000
1.575
199
427
13:20 Uhr
1.6
12:45 Uhr

05:45:00
1,7
0
12,9
13:05 Uhr

2
8.8
17:55 Uhr
4.3
07:30 Uhr
6.7
07:45 Uhr
0
00:00 Uhr
17
10:34
20.7
14:35 Uhr
4.4
07:40 Uhr

94
07:30 Uhr
48
14:35 Uhr
1020.3
08:55 Uhr

1018.6
16:00 Uhr
1019.5
0,000
00:00 Uhr
0,000
1.549
232
409
13:05 Uhr
1.5
12:25 Uhr

07:55:00
1,1
0
11,3
12:40 Uhr

2
10.4
17:55 Uhr
3.5
07:25 Uhr
4.4
07:40 Uhr
2
17:55 Uhr
18
10:30
18.8
12:25 Uhr
4.4
07:40 Uhr

95
18:50 Uhr
61
12:25 Uhr
1024.4
23:50 Uhr

1019.4
04:30 Uhr
1021.1
0,000
00:00 Uhr
0,000
1.016
165
458
12:45 Uhr
1.5
12:15 Uhr

04:00:00
3,3
1
22,5
13:00 Uhr

4
12.6
18:50 Uhr
3.5
07:20 Uhr
4.4
07:40 Uhr
5
18:40 Uhr
19
10:26
16.7
13:20 Uhr
1.6
23:50 Uhr

97
08:20 Uhr
50
15:00 Uhr
1026.5
22:10 Uhr

1024.3
03:30 Uhr
1025.3
0,000
00:00 Uhr
0,000
1.575
245
463
11:35 Uhr
1.8
13:05 Uhr

07:30:00
3,1
1
19,3
13:35 Uhr

3
8.8
11:15 Uhr
0.1
23:35 Uhr
1.6
23:50 Uhr
0
00:00 Uhr
20
10:23
14.8
12:55 Uhr
-0.1
02:20 Uhr

95
06:35 Uhr
49
12:40 Uhr
1029.1
11:35 Uhr

1026.1
00:05 Uhr
1028.0
0,000
00:00 Uhr
0,000
1.295
169
531
12:50 Uhr
1.6
12:45 Uhr

03:10:00
2,9
1
24,1
12:45 Uhr

4
5.9
11:00 Uhr
-1.3
02:15 Uhr
-0.1
02:20 Uhr
0
00:00 Uhr
21
10:19
16.5
14:25 Uhr
-0.2
07:40 Uhr

97
08:25 Uhr
52
14:35 Uhr
1030.1
10:35 Uhr

1027.4
23:50 Uhr
1028.6
0,000
00:00 Uhr
0,000
1.168
209
438
14:00 Uhr
1.7
12:40 Uhr

05:40:00
1,0
0
19,3
15:35 Uhr

3
8.6
12:10 Uhr
-0.9
07:40 Uhr
-0.2
07:40 Uhr
0
00:00 Uhr
22
11.8
15:20 Uhr
1.9
22:10 Uhr

95
11:55 Uhr
70
17:10 Uhr
1028.9
19:40 Uhr

1025.4
06:40 Uhr
1026.9
2,400
11:35 Uhr
1,600
0.457
72
422
14:35 Uhr
1.1
14:30 Uhr

01:00:00
2,6
1
35,4
12:40 Uhr

5
9.9
14:35 Uhr
0.8
22:05 Uhr
1.9
22:10 Uhr
0
00:00 Uhr
23
10:11
11.1
19:05 Uhr
2.8
00:10 Uhr

95
14:55 Uhr
80
08:10 Uhr
1027.8
00:00 Uhr

1006.3
20:45 Uhr
1013.8
4,800
16:40 Uhr
10,400
0.457
31
75
13:00 Uhr
0.0
00:00 Uhr

00:00:00
13,8
3
57,9
23:25 Uhr

7
10.2
18:30 Uhr
1.3
00:10 Uhr
1.2
09:30 Uhr
2
17:55 Uhr
24
10:07
13.0
15:15 Uhr
3.9
21:30 Uhr

86
00:40 Uhr
46
15:20 Uhr
1017.5
19:05 Uhr

1006.1
02:05 Uhr
1012.6
0,000
00:00 Uhr
0,000
2.159
224
493
13:50 Uhr
1.4
12:45 Uhr

06:50:00
12,5
2
57,9
01:10 Uhr

7
8.7
00:05 Uhr
0.6
17:25 Uhr
0.2
04:05 Uhr
0
00:00 Uhr
25
10:03
13.0
15:25 Uhr
7.2
00:00 Uhr

96
03:55 Uhr
61
18:40 Uhr
1015.8
00:05 Uhr

1008.8
14:40 Uhr
1010.8
2,400
00:45 Uhr
2,200
0.940
75
316
14:55 Uhr
0.9
12:00 Uhr

00:35:00
12,8
2
57,9
16:05 Uhr

7
10.3
07:30 Uhr
4.0
00:00 Uhr
4.4
08:05 Uhr
0
00:00 Uhr
26
09:59
11.9
16:15 Uhr
7.9
08:10 Uhr

88
08:20 Uhr
70
00:00 Uhr
1011.5
00:15 Uhr

1000.6
23:50 Uhr
1006.5
0,000
00:00 Uhr
0,000
0.864
93
372
11:10 Uhr
0.9
11:10 Uhr

01:00:00
5,8
1
22,5
00:05 Uhr

4
9.1
15:40 Uhr
4.8
00:10 Uhr
5.8
04:40 Uhr
0
00:00 Uhr
27
09:55
9.9
00:00 Uhr
2.9
23:50 Uhr

90
23:15 Uhr
65
13:55 Uhr
1012.6
23:50 Uhr

1000.0
04:00 Uhr
1004.7
0,000
00:00 Uhr
0,000
1.016
95
275
13:45 Uhr
0.8
13:45 Uhr

00:40:00
9,3
2
38,6
06:15 Uhr

5
6.4
00:20 Uhr
1.4
23:50 Uhr
1.0
06:15 Uhr
0
00:00 Uhr
28
09:51
8.9
12:00 Uhr
1.8
00:40 Uhr

94
06:15 Uhr
69
12:00 Uhr
1016.5
09:50 Uhr

1012.6
00:00 Uhr
1015.0
0,000
00:00 Uhr
0,000
0.864
130
461
11:55 Uhr
1.2
11:50 Uhr

01:35:00
8,2
2
33,8
11:20 Uhr

5
3.9
09:20 Uhr
0.6
00:20 Uhr
0.4
23:50 Uhr
0
00:00 Uhr
29
09:47
5.8
00:00 Uhr
3.7
17:40 Uhr

96
23:15 Uhr
79
03:05 Uhr
1014.3
02:05 Uhr

998.0
23:50 Uhr
1008.5
0,000
00:00 Uhr
0,000
0.432
31
62
12:50 Uhr
0.0
00:00 Uhr

00:00:00
12,8
2
40,2
01:25 Uhr

5
4.9
23:45 Uhr
1.6
03:50 Uhr
-3.1
17:05 Uhr
0
00:00 Uhr
30
09:44
21.3
12:35 Uhr
5.7
00:00 Uhr

97
01:00 Uhr
40
12:40 Uhr
1005.5
23:45 Uhr

990.8
06:30 Uhr
995.8
2,400
18:05 Uhr
0,400
1.930
189
412
12:45 Uhr
1.1
11:20 Uhr

04:55:00
11,4
2
41,8
17:15 Uhr

6
13.0
09:50 Uhr
1.6
19:45 Uhr
-0.6
00:20 Uhr
0
00:00 Uhr
31
09:41
12.5
13:45 Uhr
5.3
23:40 Uhr

82
23:45 Uhr
49
14:35 Uhr
1020.6
18:55 Uhr

1005.6
00:00 Uhr
1016.6
0,000
00:00 Uhr
0,000
1.676
203
385
11:50 Uhr
1.0
11:25 Uhr

07:05:00
5,8
1
33,8
00:10 Uhr

5
4.0
10:55 Uhr
2.0
14:35 Uhr
4.7
00:05 Uhr
0
00:00 Uhr